[[{"header":{"parameterUnit":"m.s-1","parameterCategory":1,"la1":30.2991,"la2":30.254,"lo1":-89.0895,"lo2":-89.0444,"dy":0.0017,"dx":0.0017,"nx":28,"ny":28,"refTime":"2023-10-30T09:00:00:Z","depth":0,"parameterNumber":2,"parameterNumberName":"U-component_of_WINDS"},"data":[0,0,0,0,0,0,0,0,0,0,0,0,0,0,0,0,0,0,0,0,0,0,0,0,0,0,0,0,0,0,0,0,0,0,0,0,0,0,0,0,0,0,0,0,0,0,0,0,0,0,0,0,0,0,0,0,0,0,-0.7283,-0.7284,0,-0.7344,-0.7344,-0.7345,-0.7356,-0.7356,-0.7355,-0.7355,-0.7419,-0.7421,-0.7423,0,0,0,0,0,0,0,0,0,0,0,0,0,-0.718,-0.7182,-0.7283,-0.7284,-0.7285,-0.7344,-0.7344,-0.7345,-0.7356,-0.7356,-0.7355,-0.7355,-0.7418,-0.742,-0.7423,0,0,0,0,0,0,0,0,0,0,0,0,0,-0.7231,-0.7182,-0.7283,-0.7297,-0.7299,-0.7343,-0.7344,-0.7345,-0.7356,-0.7356,-0.7355,-0.7354,-0.7417,-0.742,-0.7423,-0.7458,0,0,-0.7433,-0.7435,0,0,0,0,0,0,0,0,-0.7228,-0.7235,-0.7294,-0.7296,-0.7298,-0.7342,-0.7331,-0.7383,-0.7357,-0.7335,-0.7355,-0.7354,-0.7394,-0.7399,-0.7412,-0.7461,-0.7464,-0.7434,-0.7436,-0.7437,-0.7438,0,0,0,0,0,0,0,-0.7225,-0.7232,-0.7307,-0.7295,-0.7298,-0.7302,-0.7308,-0.7341,-0.7368,-0.7337,-0.7338,-0.7344,-0.7395,-0.7409,-0.7413,-0.7465,-0.7434,-0.7436,-0.7438,-0.744,-0.7549,-0.755,0,0,0,0,0,0,-0.7218,-0.7229,-0.7305,-0.7309,-0.7261,-0.7304,-0.7311,-0.7329,-0.7367,-0.7373,-0.7345,-0.7345,-0.7404,-0.741,-0.7416,-0.7461,-0.7437,-0.744,-0.7442,-0.7548,-0.7549,-0.755,0,0,0,0,0,0,-0.7216,-0.7225,-0.7303,-0.7269,-0.728,-0.7307,-0.7326,-0.733,-0.7344,-0.7374,-0.7379,-0.7354,-0.7403,-0.7411,-0.7448,-0.7463,-0.7441,-0.7444,-0.7547,-0.7548,-0.7549,-0.755,0,0,0,0,0,0,-0.7213,-0.7224,-0.7237,-0.727,-0.7281,-0.7333,-0.7327,-0.7332,-0.7349,-0.735,-0.7384,-0.7389,-0.7403,-0.7443,-0.7451,-0.7467,-0.7447,-0.7545,-0.7547,-0.7549,-0.7549,-0.7551,-0.7554,0,0,0,0,0,-0.7209,-0.7234,-0.7237,-0.7246,-0.7298,-0.7334,-0.7341,-0.7356,-0.7351,-0.7364,-0.7384,-0.7388,-0.746,-0.7447,-0.7456,-0.7473,-0.7545,-0.7547,-0.7549,-0.7548,-0.7551,-0.7554,0,0,0,0,0,0,-0.7203,-0.7239,-0.7242,-0.7279,-0.7303,-0.7336,-0.7353,-0.7359,-0.7386,-0.7385,-0.7404,-0.7411,-0.7448,-0.7464,-0.7449,-0.751,-0.7502,-0.7506,-0.7498,-0.7501,-0.7504,-0.7499,-0.745,0,0,0,0,0,-0.7206,-0.7231,-0.7262,-0.7291,-0.7303,-0.7326,-0.7342,-0.7352,-0.7379,-0.7389,-0.7411,-0.7437,-0.7466,-0.7484,-0.7512,-0.7551,-0.756,-0.7568,-0.757,-0.7572,-0.7575,-0.7599,-0.7604,-0.7557,-0.7557,-0.7557,0,0,-0.7212,-0.7235,-0.7249,-0.729,-0.731,-0.7338,-0.7335,-0.7363,-0.7384,-0.7394,-0.743,-0.7447,-0.7478,-0.7516,-0.7534,-0.7531,-0.759,-0.7575,-0.7576,-0.7579,-0.7602,-0.7606,-0.761,-0.7558,-0.7558,-0.7558,0,0,-0.7237,-0.7256,-0.7283,-0.7304,-0.7334,-0.735,-0.7356,-0.7388,-0.74,-0.7437,-0.7445,-0.7471,-0.7519,-0.7541,-0.7559,-0.7594,-0.76,-0.7603,-0.7615,-0.7638,-0.7642,-0.7645,-0.766,-0.7664,-0.7606,-0.7606,-0.7606,0,-0.7241,-0.7281,-0.7297,-0.7325,-0.7344,-0.7354,-0.7383,-0.7402,-0.744,-0.7453,-0.7449,-0.7511,-0.7532,-0.7577,-0.7586,-0.7599,-0.7609,-0.7599,-0.764,-0.7644,-0.7647,-0.7661,-0.7666,-0.7606,-0.7606,-0.7606,-0.7606,0,-0.7286,-0.7314,-0.7332,-0.7369,-0.7389,-0.7418,-0.7439,-0.7458,-0.7467,-0.7483,-0.7522,-0.7547,-0.7582,-0.7593,-0.7601,-0.764,-0.7637,-0.7636,-0.7628,-0.7652,-0.7665,-0.767,-0.7607,-0.7607,-0.7607,-0.7607,0,0,-0.7308,-0.7354,-0.736,-0.7378,-0.7413,-0.7435,-0.7465,-0.7498,-0.7515,-0.7542,-0.7568,-0.761,-0.761,-0.763,-0.7641,-0.7661,-0.769,-0.7658,-0.7659,-0.7665,-0.7736,-0.7737,-0.7743,-0.7694,-0.7695,-0.7695,-0.7734,0,-0.7339,-0.7391,-0.7407,-0.7451,-0.7479,-0.7489,-0.7516,-0.7541,-0.7557,-0.7584,-0.7602,-0.7632,-0.7629,-0.7641,-0.7661,-0.7682,-0.7705,-0.7679,-0.772,-0.7721,-0.7713,-0.7749,-0.775,-0.7785,-0.7739,-0.774,-0.774,0,-0.7381,-0.7408,-0.7456,-0.7489,-0.7501,-0.7524,-0.7557,-0.7581,-0.761,-0.7621,-0.7644,-0.7654,-0.7687,-0.7677,-0.7724,-0.7707,-0.7725,-0.7737,-0.7739,-0.7744,-0.7733,-0.7757,-0.7797,-0.7802,-0.7748,-0.7748,-0.7747,0,-0.7395,-0.7443,-0.7478,-0.7493,-0.7532,-0.7548,-0.7565,-0.7594,-0.7613,-0.7642,-0.7655,-0.7688,-0.7706,-0.7731,-0.7751,-0.7741,-0.7797,-0.7788,-0.7808,-0.7808,-0.782,-0.7819,-0.7864,-0.7829,-0.7829,-0.7829,-0.7829,0,-0.7428,-0.7457,-0.7485,-0.7507,-0.754,-0.7558,-0.7591,-0.7609,-0.7635,-0.7661,-0.7672,-0.7697,-0.772,-0.7749,-0.7764,-0.7802,-0.7809,-0.782,-0.7824,-0.782,-0.7819,-0.7833,-0.7831,-0.783,-0.783,-0.783,-0.7829,0,-0.7449,-0.7469,-0.7508,-0.7542,-0.7551,-0.7574,-0.7604,-0.7626,-0.7643,-0.7677,-0.7686,-0.7713,-0.7748,-0.7769,-0.7812,-0.7823,-0.7865,-0.7867,-0.7855,-0.7857,-0.7876,-0.7875,-0.7933,-0.7942,-0.7899,-0.79,-0.79,0,-0.7469,-0.7492,-0.7528,-0.7547,-0.7564,-0.7593,-0.7613,-0.7632,-0.7653,-0.7689,-0.7708,-0.7742,-0.7771,-0.7826,-0.785,-0.7884,-0.7888,-0.7907,-0.7894,-0.7889,-0.7891,-0.789,-0.7893,-0.7909,-0.7909,-0.791,-0.791,0,-0.7504,-0.7513,-0.7541,-0.7573,-0.7597,-0.7623,-0.765,-0.7664,-0.7689,-0.7712,-0.7747,-0.7769,-0.7814,-0.7849,-0.7885,-0.7904,-0.7912,-0.7914,-0.792,-0.7917,-0.7909,-0.7915,-0.7862,-0.7912,-0.7912,-0.7912,-0.7912,-0.7912,-0.7527,-0.7548,-0.7577,-0.7609,-0.7631,-0.7655,-0.7678,-0.7699,-0.7728,-0.7765,-0.7775,-0.7812,-0.7843,-0.7892,-0.7912,-0.7943,-0.794,-0.795,-0.7952,-0.7955,-0.7956,-0.7904,-0.7949,-0.7949,-0.7949,-0.7949,-0.7949,0,-0.7563,-0.7583,-0.7611,-0.7648,-0.7674,-0.7677,-0.7707,-0.7729,-0.7761,-0.7788,-0.7817,-0.7858,-0.7893,-0.792,-0.7956,-0.7975,-0.798,-0.7984,-0.7983,-0.7988,-0.7955,-0.7946,-0.798,-0.798,-0.798,-0.798,-0.798,-0.798,-0.7585,-0.7622,-0.7635,-0.7683,-0.7703,-0.7739,-0.7756,-0.7779,-0.7802,-0.7847,-0.7875,-0.7893,-0.7921,-0.7959,-0.7992,-0.7999,-0.8013,-0.8017,-0.8025,-0.7994,-0.799,-0.7987,-0.7979,-0.8019,-0.8019,-0.8056,-0.8056,-0.8056]},{"header":{"parameterUnit":"m.s-1","parameterCategory":1,"la1":30.2991,"la2":30.254,"lo1":-89.0895,"lo2":-89.0444,"dy":0.0017,"dx":0.0017,"nx":28,"ny":28,"refTime":"2023-10-30T09:00:00:Z","depth":0,"parameterNumber":3,"parameterNumberName":"V-component_of_WINDS"},"data":[0,0,0,0,0,0,0,0,0,0,0,0,0,0,0,0,0,0,0,0,0,0,0,0,0,0,0,0,0,0,0,0,0,0,0,0,0,0,0,0,0,0,0,0,0,0,0,0,0,0,0,0,0,0,0,0,0,0,2.2927,2.2927,0,2.2953,2.2953,2.2954,2.2935,2.2935,2.2934,2.2933,2.2959,2.296,2.2962,0,0,0,0,0,0,0,0,0,0,0,0,0,2.2861,2.2863,2.2927,2.2927,2.2928,2.2953,2.2953,2.2954,2.2936,2.2935,2.2934,2.2933,2.2958,2.296,2.2962,0,0,0,0,0,0,0,0,0,0,0,0,0,2.2889,2.2863,2.2927,2.2922,2.2921,2.2953,2.2953,2.2954,2.2936,2.2934,2.2933,2.2932,2.2958,2.296,2.2962,2.3,0,0,2.2969,2.297,0,0,0,0,0,0,0,0,2.2887,2.2891,2.2922,2.2922,2.2922,2.294,2.294,2.2969,2.2936,2.293,2.2933,2.2932,2.2953,2.2956,2.2963,2.3001,2.3002,2.2969,2.297,2.2971,2.2972,0,0,0,0,0,0,0,2.2886,2.289,2.2937,2.2923,2.2922,2.2918,2.2921,2.2945,2.2948,2.2931,2.2929,2.2933,2.2953,2.2961,2.2964,2.3003,2.2969,2.2971,2.2972,2.2973,2.3074,2.3075,0,0,0,0,0,0,2.2884,2.2889,2.2936,2.2938,2.2901,2.292,2.2923,2.2935,2.2948,2.2949,2.2934,2.2932,2.2958,2.2961,2.2965,2.301,2.2971,2.2973,2.2974,2.3072,2.3074,2.3075,0,0,0,0,0,0,2.2883,2.2889,2.2935,2.2913,2.2919,2.2923,2.2936,2.2936,2.2945,2.295,2.2951,2.2942,2.2957,2.2962,2.2992,2.3011,2.2974,2.2976,2.3071,2.3073,2.3075,2.3101,0,0,0,0,0,0,2.2881,2.2888,2.2903,2.2914,2.292,2.2962,2.2938,2.2938,2.2949,2.2946,2.2958,2.2959,2.2957,2.2988,2.2994,2.3013,2.2978,2.3069,2.3071,2.3074,2.3099,2.3104,2.3108,0,0,0,0,0,2.2879,2.2909,2.2903,2.2909,2.2938,2.2963,2.2967,2.2964,2.295,2.2965,2.2969,2.2958,2.3008,2.2992,2.2997,2.3018,2.3068,2.3071,2.3074,2.3096,2.3103,2.3108,0,0,0,0,0,0,2.2899,2.291,2.2904,2.2939,2.295,2.296,2.2978,2.2971,2.2986,2.2983,2.2979,2.2982,2.3014,2.3019,2.3,2.3055,2.3036,2.304,2.3051,2.3057,2.3062,2.306,2.298,0,0,0,0,0,2.2908,2.2928,2.2936,2.2965,2.2972,2.2974,2.2985,2.2982,2.2993,2.2998,2.3004,2.3016,2.3034,2.3046,2.3063,2.31,2.3102,2.3117,2.3121,2.3125,2.3129,2.3149,2.3156,2.3085,2.3085,2.3085,0,0,2.2926,2.2934,2.2947,2.297,2.2978,2.2999,2.2978,2.3,2.3015,2.3001,2.303,2.3035,2.3048,2.3081,2.3096,2.3086,2.3149,2.3129,2.3133,2.3134,2.3153,2.316,2.3166,2.3088,2.3087,2.3087,0,0,2.2969,2.2977,2.3003,2.3012,2.3025,2.3027,2.3033,2.3044,2.3047,2.3076,2.3066,2.3084,2.3116,2.3125,2.3134,2.3182,2.3173,2.3188,2.3213,2.3233,2.3238,2.3243,2.326,2.3266,2.3192,2.3192,2.3192,0,2.2989,2.3019,2.3017,2.304,2.305,2.304,2.3066,2.3075,2.3093,2.3101,2.309,2.3129,2.3137,2.3173,2.3185,2.3192,2.3199,2.3186,2.3238,2.3243,2.3247,2.3263,2.327,2.3193,2.3193,2.3193,2.3193,0,2.3044,2.3065,2.3084,2.3102,2.3115,2.314,2.3141,2.3155,2.3151,2.3154,2.3184,2.3193,2.3212,2.322,2.3217,2.3256,2.3249,2.3238,2.3218,2.3255,2.327,2.3277,2.3196,2.3195,2.3195,2.3194,0,0,2.3099,2.3116,2.3123,2.3132,2.3147,2.3163,2.3187,2.3206,2.3218,2.3231,2.3251,2.3279,2.3269,2.3279,2.3277,2.3294,2.3332,2.3281,2.3281,2.329,2.3375,2.3383,2.339,2.3326,2.3327,2.3328,2.3374,0,2.3142,2.3184,2.3184,2.3223,2.3243,2.3233,2.3255,2.3266,2.327,2.3287,2.3291,2.331,2.3296,2.3302,2.3319,2.3323,2.3349,2.332,2.3345,2.3346,2.3341,2.3398,2.3406,2.3449,2.338,2.3381,2.3382,0,2.3198,2.3214,2.3255,2.3267,2.3276,2.3295,2.3312,2.3329,2.3342,2.3344,2.3356,2.3351,2.3376,2.3356,2.339,2.3371,2.3381,2.3385,2.3387,2.3388,2.3365,2.3401,2.3462,2.3468,2.3391,2.339,2.3389,0,2.3234,2.3265,2.3294,2.3302,2.3317,2.3331,2.3338,2.335,2.3361,2.3377,2.3384,2.3403,2.3412,2.3427,2.3427,2.3413,2.3462,2.3442,2.3464,2.3464,2.3473,2.3473,2.3537,2.3481,2.3481,2.3481,2.3481,0,2.3282,2.3307,2.3311,2.3328,2.3357,2.3356,2.3384,2.339,2.3401,2.342,2.3413,2.3431,2.3431,2.3449,2.3449,2.3478,2.3482,2.3484,2.3484,2.3484,2.3484,2.349,2.3487,2.3483,2.3482,2.3482,2.3482,0,2.3326,2.3329,2.336,2.3373,2.3376,2.3397,2.3407,2.3424,2.3428,2.3452,2.3457,2.3463,2.3484,2.3486,2.3511,2.3511,2.3545,2.3542,2.3541,2.354,2.3561,2.3559,2.3631,2.3641,2.3579,2.358,2.3581,0,2.3356,2.3376,2.339,2.3403,2.341,2.343,2.3442,2.3443,2.3456,2.3472,2.3487,2.3508,2.3524,2.3559,2.3565,2.3584,2.358,2.3605,2.3583,2.3583,2.358,2.3579,2.3581,2.3608,2.3609,2.361,2.361,0,2.3409,2.341,2.3428,2.3447,2.3461,2.3476,2.349,2.35,2.3502,2.3517,2.3539,2.3552,2.3577,2.3598,2.3616,2.3624,2.3617,2.3617,2.3623,2.3623,2.3622,2.3622,2.3551,2.3615,2.3614,2.3614,2.3614,2.3614,2.3447,2.3464,2.3477,2.3498,2.3508,2.3521,2.3538,2.3544,2.3562,2.3583,2.3582,2.3606,2.3619,2.3644,2.3653,2.3672,2.3663,2.3672,2.3674,2.3676,2.3678,2.3619,2.3675,2.3675,2.3675,2.3675,2.3675,0,2.3499,2.3508,2.3526,2.3546,2.3562,2.3556,2.3571,2.3585,2.3606,2.3619,2.3635,2.3661,2.3681,2.3689,2.3709,2.3722,2.372,2.3727,2.3726,2.3728,2.3685,2.3677,2.3729,2.3729,2.3729,2.3729,2.3729,2.3729,2.3529,2.3557,2.356,2.3594,2.3602,2.3626,2.3635,2.3647,2.3657,2.3686,2.3703,2.3708,2.372,2.374,2.3759,2.376,2.3768,2.3777,2.3777,2.3736,2.3731,2.3726,2.3719,2.3778,2.3778,2.3819,2.3819,2.382]}]]